Location: Dos Palmas
(32.4468°N, 116.8732°W)
Time: 14:18:00
(UTC+00:00)

Cosmos 1980 - Pass Details

Date: 20 June 2021
Orbit: 839 x 848 km, 71.0° (Epoch: 26 July)

Event Time Altitude Azimuth Distance (km) Brightness Sun altitude
Exits shadow 06:34:44 58° 308° (NW) 980 4.1 -31.4°
Drops below altitude 10° 06:40:01 10° 12° (NNE) 2,473 6.8 -31.7°
Sets 06:42:31 0° 16° (NNE) 3,412 7.6 -31.9°
